Date String (YYYY-MM-DD hh:mm:ss) UTC,Instrument flags,Ambient pressure (hPa),Sample flow (lpm),Bypass flow (lpm),Sample temperature (°C),Ambient temperature (°C),ASC tube jacket temperature (°C),LED temperature (°C),Box temperature (°C),Sample RH (%),Span deviation,Mass concentration (μg/m³),Mass concentration (μg/m³),Mass concentration (μg/m³)
DateTimeUTC,F1_M11,P_M11,Q1_M11,Q2_M11,T1_M11,T2_M11,T3_M11,T4_M11,T5_M11,U1_M11,ZSPAN_M11,X0_M11,X2_M11,X1_M11
2021-09-01 01:00:00,,0821.7,5.00,0.00,29.0,27.3,00.0,38.0,30.8,14.3,0000.7,0060.46,0036.07,0033.73
2021-09-01 01:01:00,,0821.7,4.99,0.00,29.1,27.6,00.0,38.0,30.9,14.3,0000.7,0059.43,0036.20,0033.83
2021-09-01 01:02:00,,0821.7,4.99,0.00,29.1,27.9,00.0,38.1,31.0,14.3,0000.6,0058.84,0036.33,0033.94
2021-09-01 01:03:00,,0821.7,5.00,0.00,29.2,28.2,00.0,38.1,31.1,14.3,0000.3,0057.85,0036.47,0034.02
2021-09-01 01:04:00,,0821.7,5.00,0.00,29.2,28.4,00.0,38.1,31.2,14.4,0000.1,0057.23,0036.39,0033.95
2021-09-01 01:05:00,,0821.8,5.01,0.00,29.3,28.1,00.0,38.1,31.1,14.5,0000.0,0058.26,0036.31,0033.86
2021-09-01 01:06:00,,0821.7,4.99,0.00,29.2,26.2,00.0,38.1,30.6,14.8,-000.1,0058.38,0036.09,0033.71
2021-09-01 01:07:00,,0821.7,5.01,0.00,29.0,25.6,00.0,38.1,30.4,14.5,-000.3,0057.86,0036.00,0033.58
2021-09-01 01:08:00,,0821.7,5.00,0.00,29.0,26.0,00.0,38.1,30.5,14.6,-000.2,0056.99,0035.85,0033.49
2021-09-01 01:09:00,,0821.7,5.00,0.00,28.9,26.5,00.0,38.1,30.6,14.5,-000.1,0058.18,0035.78,0033.42
2021-09-01 01:10:00,,0821.8,5.00,0.00,29.0,26.9,00.0,38.0,30.7,14.5,-000.1,0060.11,0035.73,0033.30
2021-09-01 01:11:00,,0821.8,5.00,0.00,29.0,27.4,00.0,38.0,30.9,14.4,-000.1,0058.58,0035.65,0033.20
2021-09-01 01:12:00,,0821.8,4.99,0.00,29.1,27.7,00.0,38.1,31.0,14.3,-000.2,0058.61,0035.52,0033.09
2021-09-01 01:13:00,,0821.8,5.01,0.00,29.1,28.0,00.0,38.1,31.1,14.5,-000.2,0057.85,0035.31,0032.94
2021-09-01 01:14:00,,0821.8,4.99,0.00,29.2,28.3,00.0,38.1,31.2,14.3,-000.1,0058.74,0035.13,0032.76
2021-09-01 01:15:00,,0821.8,5.00,0.00,29.3,28.5,00.0,38.1,31.2,14.3,0000.2,0059.03,0035.07,0032.70
2021-09-01 01:16:00,,0821.8,5.01,0.00,29.3,27.5,00.0,38.2,31.0,14.4,0000.2,0058.23,0035.03,0032.65
2021-09-01 01:17:00,,0821.8,5.00,0.00,29.1,25.8,00.0,38.1,30.4,14.5,0000.4,0058.90,0035.04,0032.64
2021-09-01 01:18:00,,0821.9,5.00,0.00,29.0,25.7,00.0,38.1,30.4,14.5,0000.5,0058.93,0035.02,0032.63
2021-09-01 01:19:00,,0821.8,5.00,0.00,29.0,26.2,00.0,38.1,30.5,14.4,0000.4,0058.83,0035.13,0032.64
2021-09-01 01:20:00,,0821.8,4.99,0.00,28.9,26.6,00.0,38.1,30.6,14.3,0000.5,0057.88,0035.12,0032.60
2021-09-01 01:21:00,,0821.9,5.01,0.00,29.0,27.1,00.0,38.1,30.8,14.0,0000.7,0054.81,0035.06,0032.57
2021-09-01 01:22:00,,0821.8,5.00,0.00,29.0,27.5,00.0,38.1,30.9,13.8,0000.7,0054.60,0035.05,0032.54
2021-09-01 01:23:00,,0821.8,5.00,0.00,29.1,27.8,00.0,38.1,31.0,14.1,0000.8,0054.52,0034.93,0032.48
2021-09-01 01:24:00,,0821.8,4.99,0.00,29.1,28.1,00.0,38.1,31.1,13.9,0000.9,0054.66,0034.91,0032.44
2021-09-01 01:25:00,,0821.8,5.00,0.00,29.2,28.3,00.0,38.1,31.2,14.0,0000.9,0055.24,0034.85,0032.41
2021-09-01 01:26:00,,0821.8,5.01,0.00,29.3,28.5,00.0,38.2,31.2,14.0,0001.0,0055.18,0034.89,0032.43
2021-09-01 01:27:00,,0821.8,4.99,0.00,29.3,27.9,00.0,38.2,31.1,13.9,0001.1,0054.80,0034.85,0032.42
2021-09-01 01:28:00,,0821.8,5.01,0.00,29.2,26.0,00.0,38.2,30.5,13.9,0001.1,0054.81,0034.82,0032.39
2021-09-01 01:29:00,,0821.8,4.99,0.00,29.0,25.7,00.0,38.1,30.4,14.2,0001.1,0055.44,0034.86,0032.37
2021-09-01 01:30:00,,0821.8,5.00,0.00,29.0,26.1,00.0,38.1,30.5,14.4,0001.2,0055.28,0034.76,0032.32
2021-09-01 01:31:00,,0821.8,5.00,0.00,29.0,26.6,00.0,38.1,30.7,14.5,0001.0,0054.77,0034.77,0032.34
2021-09-01 01:32:00,,0822.1,5.00,0.00,29.0,27.0,00.0,38.1,30.8,14.5,0000.8,0054.64,0034.77,0032.34
2021-09-01 01:33:00,,0822.2,5.00,0.00,29.0,27.4,00.0,38.1,30.9,14.6,0000.9,0055.76,0034.78,0032.33
2021-09-01 01:34:00,,0821.9,5.01,0.00,29.1,27.8,00.0,38.1,31.0,14.7,0000.9,0056.46,0034.92,0032.39
2021-09-01 01:35:00,,0822.0,5.00,0.00,29.2,28.0,00.0,38.1,31.1,14.6,0000.7,0057.70,0035.00,0032.44
2021-09-01 01:36:00,,0822.0,4.99,0.00,29.2,28.3,00.0,38.1,31.2,14.4,0000.4,0057.04,0035.10,0032.56
2021-09-01 01:37:00,,0822.0,5.01,0.00,29.3,28.4,00.0,38.2,31.2,13.6,0000.3,0056.50,0035.13,0032.64
2021-09-01 01:38:00,,0822.0,5.01,0.00,29.3,27.2,00.0,38.2,30.9,13.9,0000.2,0057.29,0035.30,0032.74
2021-09-01 01:39:00,,0822.0,5.00,0.00,29.1,25.6,00.0,38.2,30.5,14.1,0000.3,0057.01,0035.51,0032.92
2021-09-01 01:40:00,,0822.1,5.00,0.00,29.0,25.7,00.0,38.1,30.5,14.4,0000.5,0056.62,0035.53,0033.00
2021-09-01 01:41:00,,0822.0,5.00,0.00,29.0,26.2,00.0,38.1,30.6,14.8,0000.5,0057.60,0035.61,0033.10
2021-09-01 01:42:00,,0822.1,5.00,0.00,29.0,26.6,00.0,38.1,30.7,14.9,0000.6,0059.15,0035.72,0033.19
2021-09-01 01:43:00,,0822.1,4.99,0.00,29.0,27.1,00.0,38.1,30.8,15.2,0000.7,0060.68,0035.83,0033.27
2021-09-01 01:44:00,,0822.1,5.01,0.00,29.0,27.5,00.0,38.1,30.9,14.9,0000.7,0060.87,0035.87,0033.35
2021-09-01 01:45:00,,0822.1,4.98,0.00,29.1,27.8,00.0,38.1,31.0,14.5,0000.9,0060.33,0035.93,0033.42
2021-09-01 01:46:00,,0822.1,5.00,0.00,29.2,28.1,00.0,38.1,31.1,14.7,0001.1,0060.01,0035.93,0033.48
2021-09-01 01:47:00,,0822.1,5.00,0.00,29.2,28.3,00.0,38.1,31.2,14.9,0001.5,0059.61,0035.96,0033.50
2021-09-01 01:48:00,,0822.1,5.00,0.00,29.3,28.5,00.0,38.2,31.2,14.9,0001.5,0059.26,0036.04,0033.51
2021-09-01 01:49:00,,0822.1,4.99,0.00,29.3,27.6,00.0,38.2,31.0,14.9,0001.4,0059.68,0035.99,0033.49
2021-09-01 01:50:00,,0822.1,5.01,0.00,29.1,25.9,00.0,38.2,30.5,15.0,0001.2,0060.37,0035.98,0033.49
2021-09-01 01:51:00,,0822.1,5.01,0.00,29.0,25.7,00.0,38.2,30.4,15.1,0001.0,0060.06,0036.07,0033.55
2021-09-01 01:52:00,,0822.1,5.00,0.00,29.0,26.1,00.0,38.1,30.5,14.8,0000.9,0059.74,0036.11,0033.60
2021-09-01 01:53:00,,0822.2,5.01,0.00,28.9,26.5,00.0,38.1,30.6,14.8,0000.9,0060.11,0036.07,0033.58
2021-09-01 01:54:00,,0822.2,4.99,0.00,29.0,27.0,00.0,38.1,30.7,15.0,0000.8,0059.05,0036.04,0033.60
2021-09-01 01:55:00,,0822.2,5.01,0.00,29.0,27.4,00.0,38.1,30.8,14.9,0000.9,0058.91,0036.07,0033.65
2021-09-01 01:56:00,,0822.2,5.01,0.00,29.1,27.7,00.0,38.1,31.0,14.5,0001.0,0061.84,0036.09,0033.68
2021-09-01 01:57:00,,0822.2,4.99,0.00,29.1,28.0,00.0,38.1,31.1,14.3,0001.1,0061.01,0036.12,0033.73
2021-09-01 01:58:00,,0822.2,5.01,0.00,29.2,28.2,00.0,38.1,31.1,14.6,0000.9,0061.80,0036.18,0033.76
2021-09-01 01:59:00,,0822.2,5.00,0.00,29.3,28.4,00.0,38.2,31.2,14.3,0001.0,0062.70,0036.15,0033.75
